Location: De Har
(53.3413°N, 6.6858°E)
Time: 16:23:34
(UTC+00:00)

Resurs 1-4 Rocket - Pass Details

Date: 22 April 2026
Orbit: 798 x 812 km, 98.8° (Epoch: 9 May)

Event Time Altitude Azimuth Distance (km) Brightness Sun altitude
Rises 02:40:38 0° 15° (NNE) 3,346 6.4 -13.1°
Reaches altitude 10° 02:42:59 10° 15° (NNE) 2,409 5.5 -12.9°
Maximum altitude 02:48:19 84° 288° (WNW) 821 2.1 -12.3°
Enters shadow 02:53:19 12° 201° (SSW) 2,272 3.9 -11.7°
